Terminal Aerodrome Forecast
Issued by NWS Sterling, VA

Current Version | Previous Version | Graphics & Text | Print | Product List | Glossary On
Versions: 1 2 3 4 5 6 7 8 9 10 11 12 13 14 15 16 17 18 19 20 21 22 23 24 25 26 27 28
000
FTUS41 KLWX 180856 AAA
TAFDCA
TAF AMD
KDCA 180856Z 1809/1912 23009KT P6SM BKN009
     FM181100 27006KT P6SM BKN050
     FM181300 31006KT P6SM FEW250
     FM182300 16004KT P6SM FEW250=

USA.gov is the U.S. government's official web portal to all federal, state and local government web resources and services.